Location: Campillo
(40.8621°N, 4.2488°W)
Time: 00:45:42
(UTC+00:00)

SJ-6B - Pass Details

Date: 26 September 2021
Orbit: 508 x 581 km, 97.6° (Epoch: 16 October)

Event Time Altitude Azimuth Distance (km) Brightness Sun altitude
Exits shadow 21:17:20 15° 278° (W) 1,596 5.7 -35.0°
Drops below altitude 10° 21:19:12 10° 305° (NW) 1,892 6.3 -35.3°
Sets 21:22:09 0° 328° (NNW) 2,787 7.3 -35.8°
